Waarnemingen

Advertentie
Mijn weer
Groningen Eelde, Nederland (6280): temperatuur & dauwpunt: 13.06.2018 02:00:00 - 19.06.2018 02:00:00 (CEST)Groningen Eelde, Nederland (6280): temperatuur 5cm: 13.06.2018 02:00:00 - 19.06.2018 02:00:00 (CEST)Groningen Eelde, Nederland (6280): windsnelheid & windstoten: 13.06.2018 02:00:00 - 19.06.2018 02:00:00 (CEST)Groningen Eelde, Nederland (6280): windrichting: 13.06.2018 02:00:00 - 19.06.2018 02:00:00 (CEST)Groningen Eelde, Nederland (6280): luchtdruk: 13.06.2018 02:00:00 - 19.06.2018 02:00:00 (CEST)Groningen Eelde, Nederland (6280): zicht: 13.06.2018 02:00:00 - 19.06.2018 02:00:00 (CEST)Groningen Eelde, Nederland (6280): neerslag: 13.06.2018 02:00:00 - 19.06.2018 02:00:00 (CEST)
Datum & Tijd tt [°C] td [°C] tt 5cm [°C] ff [km/u] ff [kn] fx [km/u] fx [kn] dd ppp [hPa] vv [km] rr [mm]
19.06.2018 02:00:00 - - - - - - - - - - -
19.06.2018 01:00:00 15,2 13,5 14,2 13 7 22 12 ZZW 1018,3 10 0,0
19.06.2018 00:00:00 15,1 13,6 13,6 11 6 18 10 ZW 1019,0 10 0,0
18.06.2018 23:00:00 13,8 12,7 11,7 11 6 18 10 ZW 1019,1 10 0,0
18.06.2018 22:00:00 14,9 13,2 13,5 15 8 25 14 ZW 1018,7 10 0,0
18.06.2018 21:00:00 16,9 13,8 16,7 15 8 29 16 WZW 1018,6 10 0,0
18.06.2018 20:00:00 16,9 14,0 16,6 16 9 36 19 WZW 1018,4 10 0,0
18.06.2018 19:00:00 17,6 14,2 18,0 21 11 36 19 WZW 1018,1 10 0,0
18.06.2018 18:00:00 16,7 15,4 17,0 21 11 36 19 WZW 1018,3 10 0,4
18.06.2018 17:00:00 17,3 16,1 17,5 18 10 32 18 W 1018,3 10 0,1
18.06.2018 16:00:00 17,9 15,9 18,1 14 8 29 16 WZW 1018,1 19 0,0
18.06.2018 15:00:00 19,2 16,5 22,2 22 12 32 18 WZW 1017,9 10 0,0
18.06.2018 14:00:00 16,9 15,9 17,8 15 8 32 18 W 1018,1 5 0,5
18.06.2018 13:00:00 17,4 15,6 18,4 21 11 36 19 ZZW 1017,9 10 0,0
18.06.2018 12:00:00 17,6 15,7 18,4 26 14 36 19 ZZW 1017,8 10 0,0
18.06.2018 11:00:00 17,2 14,7 18,5 24 13 36 19 ZZW 1017,5 10 0,0
18.06.2018 10:00:00 15,4 14,1 16,2 22 12 32 18 ZZW 1017,4 4,2 0,0
18.06.2018 09:00:00 14,5 13,6 14,6 18 10 29 16 Z 1017,6 9 0,0
18.06.2018 08:00:00 14,1 13,2 14,0 18 10 32 18 Z 1017,3 10 0,0
18.06.2018 07:00:00 14,1 12,6 13,9 18 10 29 16 ZZW 1017,3 10 0,0
18.06.2018 06:00:00 13,9 12,2 13,3 16 9 25 14 ZZW 1017,5 10 0,0
18.06.2018 05:00:00 13,5 11,6 12,5 15 8 22 12 Z 1017,4 10 0,0
18.06.2018 04:00:00 13,0 11,2 11,7 13 7 22 12 ZZW 1017,5 10 0,0
18.06.2018 03:00:00 12,8 11,5 11,3 13 7 18 10 Z 1017,8 10 0,0
18.06.2018 02:00:00 13,1 11,8 11,9 13 7 18 10 Z 1018,0 10 0,0
18.06.2018 01:00:00 13,6 12,2 12,6 9 5 14 8 Z 1018,1 10 0,0
18.06.2018 00:00:00 13,2 11,9 11,9 9 5 14 8 ZZW 1018,1 10 0,0
17.06.2018 23:00:00 13,9 12,4 13,3 9 5 22 12 ZZW 1018,2 10 0,0
17.06.2018 22:00:00 14,1 12,1 13,4 8 4 22 12 Z 1017,9 10 0,6
17.06.2018 21:00:00 15,0 11,5 14,3 13 7 22 12 Z 1017,9 10 0,0
17.06.2018 20:00:00 15,4 11,2 15,1 13 7 32 18 WZW 1017,4 10 0,0
17.06.2018 19:00:00 16,0 10,8 15,3 13 7 29 16 W 1017,3 10 0,1
17.06.2018 18:00:00 17,9 10,3 18,3 16 9 29 16 W 1016,8 10 0,0
17.06.2018 17:00:00 18,3 10,8 19,4 15 8 29 16 W 1016,6 10 0,0
17.06.2018 16:00:00 17,3 10,5 18,3 18 10 36 19 W 1016,7 10 0,0
17.06.2018 15:00:00 17,8 11,6 18,4 22 12 36 19 WZW 1016,3 10 0,0
17.06.2018 14:00:00 17,2 10,9 17,7 26 14 40 21 WZW 1015,9 10 0,0
17.06.2018 13:00:00 18,4 12,5 20,4 26 14 40 21 WZW 1015,3 10 0,0
17.06.2018 12:00:00 17,4 12,0 19,1 26 14 43 23 ZW 1014,8 10 0,0
17.06.2018 11:00:00 18,8 12,3 19,6 28 15 43 23 WZW 1014,5 10 0,0
17.06.2018 10:00:00 16,7 13,5 17,7 18 10 36 19 ZW 1014,2 10 0,0
17.06.2018 09:00:00 16,0 12,7 17,4 21 11 32 18 ZW 1013,7 10 0,0
17.06.2018 08:00:00 15,0 12,0 15,4 21 11 32 18 ZZW 1013,3 10 0,0
17.06.2018 07:00:00 14,2 11,3 14,1 16 9 25 14 ZZW 1013,2 10 0,0
17.06.2018 06:00:00 13,9 11,2 13,0 13 7 25 14 ZZW 1013,3 10 0,0
17.06.2018 05:00:00 13,5 11,1 12,2 15 8 22 12 ZZW 1013,3 10 0,0
17.06.2018 04:00:00 12,2 9,9 10,0 11 6 22 12 Z 1013,5 10 0,0
17.06.2018 03:00:00 12,3 9,5 9,7 13 7 18 10 ZZW 1013,7 10 0,0
17.06.2018 02:00:00 11,5 9,0 7,8 9 5 14 8 Z 1013,9 10 0,0
17.06.2018 01:00:00 12,4 9,5 8,3 9 5 18 10 ZZW 1014,0 10 0,0
17.06.2018 00:00:00 13,6 9,9 11,2 15 8 22 12 ZW 1014,2 10 0,0
16.06.2018 23:00:00 14,1 10,6 11,6 5 3 11 6 ZZW 1014,1 10 0,0
16.06.2018 22:00:00 15,6 11,0 14,4 8 4 14 8 WZW 1013,9 10 0,0
16.06.2018 21:00:00 17,1 10,5 16,0 9 5 25 14 W 1013,7 10 0,0
16.06.2018 20:00:00 18,3 11,5 17,9 13 7 29 16 W 1013,6 10 0,0
16.06.2018 19:00:00 19,6 11,6 19,8 18 10 36 19 WZW 1013,5 10 0,0
16.06.2018 18:00:00 19,9 9,1 20,2 22 12 32 18 WZW 1013,5 10 0,0
16.06.2018 17:00:00 20,8 10,4 20,7 21 11 32 18 WZW 1013,3 10 0,0
16.06.2018 16:00:00 21,8 13,6 22,6 21 11 32 18 ZW 1013,3 10 0,0
16.06.2018 15:00:00 21,4 13,1 23,8 21 11 36 19 ZW 1013,4 10 0,0
16.06.2018 14:00:00 20,8 13,6 22,3 18 10 29 16 WZW 1013,9 10 0,0
16.06.2018 13:00:00 21,1 14,1 25,1 15 8 22 12 WZW 1014,1 10 0,0
16.06.2018 12:00:00 20,4 14,3 22,5 13 7 22 12 ZW 1014,4 10 0,0
16.06.2018 11:00:00 19,9 14,4 22,2 9 5 14 8 ZZW 1014,2 10 0,0
16.06.2018 10:00:00 20,2 16,2 21,7 4 2 7 4 - 1014,0 10 0,0
16.06.2018 09:00:00 17,4 13,9 17,7 4 2 7 4 - 1014,2 10 0,0
16.06.2018 08:00:00 15,8 13,5 15,6 4 2 7 4 - 1014,0 10 0,0
16.06.2018 07:00:00 14,6 13,0 14,0 4 2 11 6 OZO 1014,2 18 0,1
16.06.2018 06:00:00 14,1 12,7 13,5 4 2 11 6 N 1014,5 19 0,0
16.06.2018 05:00:00 14,2 12,1 13,3 7 4 18 10 NW 1014,9 25 0,0
16.06.2018 04:00:00 14,0 12,1 13,0 7 4 7 4 NNW 1014,9 31 0,0
16.06.2018 03:00:00 13,9 11,8 12,3 4 2 11 6 O 1015,0 34 0,0
16.06.2018 02:00:00 13,9 10,9 10,7 4 2 11 6 ONO 1015,5 29 0,0
16.06.2018 01:00:00 13,4 10,6 10,5 7 4 11 6 O 1015,5 30 0,0
16.06.2018 00:00:00 14,0 11,2 10,8 8 4 11 6 ONO 1015,9 10 0,0
15.06.2018 23:00:00 14,2 11,1 10,9 5 3 11 6 ONO 1015,8 10 0,0
15.06.2018 22:00:00 16,3 11,4 14,2 9 5 14 8 NNO 1016,1 10 0,0
15.06.2018 21:00:00 18,1 12,4 17,3 11 6 18 10 NNO 1016,2 10 0,0
15.06.2018 20:00:00 19,0 12,0 18,9 13 7 18 10 N 1016,1 10 0,0
15.06.2018 19:00:00 21,4 11,5 22,9 9 5 18 10 WNW 1016,0 10 0,0
15.06.2018 18:00:00 20,7 11,1 20,6 2 1 7 4 - 1016,0 10 0,0
15.06.2018 17:00:00 20,6 12,3 20,6 8 4 14 8 NNW 1016,2 10 0,0
15.06.2018 16:00:00 21,4 11,9 20,8 9 5 14 8 NNO 1016,5 10 0,0
15.06.2018 15:00:00 21,0 11,4 22,6 8 4 14 8 ONO 1016,6 10 0,0
15.06.2018 14:00:00 20,6 11,1 21,3 2 1 11 6 - 1016,9 10 0,0
15.06.2018 13:00:00 20,2 11,1 23,5 13 7 22 12 Z 1017,1 10 0,0
15.06.2018 12:00:00 20,4 11,9 23,0 8 4 18 10 ZO 1017,2 10 0,0
15.06.2018 11:00:00 19,4 12,5 22,0 8 4 14 8 Z 1017,2 10 0,0
15.06.2018 10:00:00 17,8 10,9 21,1 8 4 14 8 ZZO 1017,2 10 0,0
15.06.2018 09:00:00 16,6 11,9 18,8 8 4 14 8 ZZO 1017,1 10 0,0
15.06.2018 08:00:00 14,3 14,2 15,4 4 2 7 4 - 1016,6 4,4 0,0
15.06.2018 07:00:00 13,2 13,1 13,4 8 4 11 6 Z 1016,3 0,3 0,0
15.06.2018 06:00:00 12,1 12,1 11,0 2 1 7 4 ZZW 1016,0 0,2 0,0
15.06.2018 05:00:00 10,5 10,5 9,1 2 1 4 2 ZZW 1015,8 0,3 0,0
15.06.2018 04:00:00 10,8 10,8 7,3 4 2 4 2 ZZW 1015,6 0,3 0,0
15.06.2018 03:00:00 10,1 10,0 7,0 4 2 7 4 ZZW 1015,6 0,3 0,0
15.06.2018 02:00:00 11,7 11,6 7,7 5 3 7 4 ZW 1015,7 0,5 0,0
15.06.2018 01:00:00 12,3 12,1 7,4 5 3 11 6 W 1015,5 4,7 0,0
15.06.2018 00:00:00 13,5 12,9 11,1 8 4 14 8 WZW 1015,2 9 0,0
14.06.2018 23:00:00 15,2 14,2 14,3 11 6 18 10 W 1014,7 10 0,0
14.06.2018 22:00:00 15,6 14,3 14,9 11 6 18 10 WZW 1014,1 10 0,0
14.06.2018 21:00:00 15,8 14,8 15,6 13 7 25 14 ZW 1013,6 10 0,0
14.06.2018 20:00:00 15,8 14,7 15,7 16 9 32 18 WZW 1013,1 10 0,0
14.06.2018 19:00:00 15,6 14,7 15,8 22 12 32 18 ZW 1012,7 7 0,3
14.06.2018 18:00:00 15,2 14,5 15,4 21 11 36 19 W 1012,6 4,6 0,9
14.06.2018 17:00:00 17,1 13,3 17,1 22 12 40 21 Z 1011,6 10 0,0
14.06.2018 16:00:00 16,8 13,2 16,4 18 10 29 16 ZZW 1011,6 10 0,4
14.06.2018 15:00:00 17,3 13,1 17,3 18 10 40 21 ZZW 1011,8 10 0,3
14.06.2018 14:00:00 18,7 10,4 18,1 26 14 43 23 ZZW 1011,4 10 0,0
14.06.2018 13:00:00 20,1 9,8 21,0 31 17 47 25 ZZW 1011,7 10 0,0
14.06.2018 12:00:00 20,2 9,7 22,3 29 16 43 23 Z 1012,0 10 0,0
14.06.2018 11:00:00 20,8 10,5 23,1 28 15 40 21 ZZW 1012,0 10 0,0
14.06.2018 10:00:00 18,9 10,8 21,2 22 12 36 19 ZZW 1012,4 10 0,0
14.06.2018 09:00:00 16,9 10,6 18,6 24 13 36 19 ZZW 1012,8 10 0,0
14.06.2018 08:00:00 14,9 10,4 15,4 21 11 32 18 ZZW 1013,1 10 0,0
14.06.2018 07:00:00 13,6 10,0 12,8 16 9 25 14 Z 1013,5 10 0,0
14.06.2018 06:00:00 12,0 9,4 10,4 15 8 22 12 Z 1013,9 10 0,0
14.06.2018 05:00:00 11,5 9,2 9,5 11 6 18 10 ZZW 1014,2 10 0,0
14.06.2018 04:00:00 11,4 9,1 9,7 9 5 18 10 ZZW 1014,8 10 0,0
14.06.2018 03:00:00 10,8 8,6 5,9 8 4 14 8 Z 1015,0 10 0,0
14.06.2018 02:00:00 10,0 8,1 5,1 8 4 11 6 ZZW 1015,5 10 0,0
14.06.2018 01:00:00 9,5 7,9 4,9 8 4 7 4 ZW 1015,8 10 0,0
14.06.2018 00:00:00 10,4 7,9 6,3 8 4 14 8 Z 1016,1 10 0,0
13.06.2018 23:00:00 10,1 8,0 5,1 8 4 7 4 ZZW 1016,4 10 0,0
13.06.2018 22:00:00 11,9 8,5 7,7 5 3 11 6 WZW 1016,6 10 0,0
13.06.2018 21:00:00 14,1 8,9 13,4 8 4 18 10 W 1016,3 10 0,0
13.06.2018 20:00:00 15,8 7,6 15,7 15 8 22 12 WNW 1016,2 10 0,0
13.06.2018 19:00:00 15,6 9,8 15,7 15 8 29 16 WNW 1016,5 10 0,0
13.06.2018 18:00:00 15,8 9,2 15,9 18 10 29 16 NW 1016,3 10 0,0
13.06.2018 17:00:00 16,4 9,7 17,1 22 12 36 19 NW 1016,4 10 0,0
13.06.2018 16:00:00 16,3 9,0 17,3 22 12 36 19 NW 1016,4 10 0,0
13.06.2018 15:00:00 16,2 8,5 17,0 16 9 40 21 NW 1016,2 10 0,0
13.06.2018 14:00:00 16,4 8,8 17,2 22 12 36 19 NW 1016,4 10 0,0
13.06.2018 13:00:00 16,7 8,0 16,4 24 13 32 18 NW 1016,4 10 0,0
13.06.2018 12:00:00 15,2 8,7 16,3 18 10 29 16 NW 1016,0 10 0,0
13.06.2018 11:00:00 14,2 8,3 14,4 21 11 36 19 NW 1016,0 10 0,0
13.06.2018 10:00:00 13,9 8,6 14,0 18 10 29 16 NW 1015,7 10 0,0
13.06.2018 09:00:00 13,8 9,4 14,2 11 6 29 16 NW 1015,3 10 0,0
13.06.2018 08:00:00 13,4 9,3 13,4 13 7 25 14 NW 1015,2 10 0,0
13.06.2018 07:00:00 13,1 9,3 12,8 15 8 29 16 NW 1014,9 10 0,0
13.06.2018 06:00:00 13,1 9,5 12,7 13 7 22 12 NW 1014,8 10 0,0
13.06.2018 05:00:00 12,4 9,7 11,7 8 4 14 8 WNW 1014,7 10 0,0
13.06.2018 04:00:00 12,5 9,3 11,9 9 5 14 8 NNW 1014,7 10 0,0
13.06.2018 03:00:00 12,3 10,7 11,7 5 3 14 8 W 1014,7 10 0,0
13.06.2018 02:00:00 13,1 10,4 12,7 9 5 18 10 NNW 1014,7 10 0,0

tt = temperatuur
td = dauwpunt
tt 5cm = temperatuur 5cm
ff = windsnelheid
fx = windstoten
dd = windrichting
ppp = luchtdruk
vv = zicht
rr = neerslag

Weerstations in de omgeving